sat.trackr.live / text

‹ back to catalog

STARLINK-36262

NORAD 67201 · 2025-304K

PAYLOAD ACTIVE UNKNOWN

§ Identity

Operator
Country
US
Launch date
2025-12-17
Launch site
AFWTR
Launch vehicle
Mass (kg)
RCS (m²)

Purposes: comms

External: N2YO · Heavens-Above · Gunter

§ Orbital elements

Epoch: 2026-09-20T02:43:21.974592Z

Period
96.11 min
Inclination
70.0021°
Eccentricity
0.0002871
Mean motion
14.98341041 rev/d
Perigee alt
570.0 km
Apogee alt
574.0 km
Semi-major
6,950.2 km
B*
1.8217e-4
RAAN
44.4008°
Arg perigee
268.0955°
Mean anomaly
91.9875°
Rev number
4,300

§ Raw data

STARLINK-362621 67201U 25304K   26263.11344878  .00002082  00000+0  18217-3 0  99982 67201  70.0021  44.4008 0002871 268.0955  91.9875 14.98341041 43002

JSON: /api/v1/satellites/67201 · /tle

For live sub-satellite position, see the globe view (requires WebGL).

§ Visibility from observer

Set your observer location to see the next 7 days of passes ≥ 10°. The values pass through the URL so the page stays shareable.

No JS? Fill the form by hand. The geolocation button needs JavaScript.